sat.trackr.live / text

‹ back to catalog

ONEWEB-0242

NORAD 48772 · 2021-045F

PAYLOAD ACTIVE UNKNOWN

§ Identity

Operator
Country
UK
Launch date
2021-05-28
Launch site
VOSTO
Launch vehicle
Mass (kg)
RCS (m²)

Purposes: comms

External: N2YO · Heavens-Above · Gunter

§ Orbital elements

Epoch: 2026-05-24T20:21:43.513920Z

Period
109.46 min
Inclination
87.9000°
Eccentricity
0.0001865
Mean motion
13.15546730 rev/d
Perigee alt
1,200.4 km
Apogee alt
1,203.2 km
Semi-major
7,579.9 km
B*
1.0881e-4
RAAN
263.8365°
Arg perigee
94.6692°
Mean anomaly
265.4651°
Rev number
24,135

§ Raw data

ONEWEB-02421 48772U 21045F   26144.84842030  .00000054  00000+0  10881-3 0  99952 48772  87.9000 263.8365 0001865  94.6692 265.4651 13.15546730241352

JSON: /api/v1/satellites/48772 · /tle

For live sub-satellite position, see the globe view (requires WebGL).

§ Visibility from observer

Set your observer location to see the next 7 days of passes ≥ 10°. The values pass through the URL so the page stays shareable.

No JS? Fill the form by hand. The geolocation button needs JavaScript.